Flag for Canada Weather past 2 weeks in Medicine Hat, Alberta, Canada

Now
61 °F

Partly sunny.


Feels Like: 61 °F
Forecast: 42 / 68 °F
Wind: 22 mph from Southwest

Location: Medicine Hat

Current Time: Mar 31, 2015 at 11:35:57 AM

Latest Report: Mar 31, 2015 at 11:00 AM


Visibility: 30 mi

Pressure: 29.61 "Hg

Humidity: 36%

Dew point: 34 °F

Location of Medicine HatLocation

Historic Weather in Medicine Hat — Graph

°F

Medicine Hat temperature yesterday

Maximum temperature yesterday: 66 °F (at 4:00 PM)
Minimum temperature yesterday: 37 °F (at 7:00 AM)
Average temperature yesterday: 51 °F

Past Weeks' High & Low Weather Summary

 TemperatureHumidityPressure
High66 °F (Mar 26, 4:00 PM)100% (Mar 16, 10:00 AM)30.58 "Hg (Mar 16, 10:00 AM)
Low23 °F (Mar 17, 6:00 AM)28% (Mar 26, 4:00 PM)29.54 "Hg (Mar 28, 8:00 AM)
Average41 °F75%30.03 "Hg
* Reported Mar 16 10:00 AM — Mar 31 10:00 AM, Medicine Hat, Weather by CustomWeather, © 2015

Note: Actual official high and low records may vary slightly from our data, if they occured in-between our weather recording intervals... More about our weather records

Advertising

Medicine Hat weather history for previous 24 hours

 ConditionsComfort  
Time TempWeatherWind HumidityBarometerVisibility
10:00 AM
Tue, Mar 31
59 °FScattered clouds.16 mph36%29.62 "Hg30 mi
9:00 AM50 °FPassing clouds.10 mph58%29.65 "Hg30 mi
8:00 AM41 °FPassing clouds.3 mph76%29.68 "Hg30 mi
7:00 AM41 °FPassing clouds.6 mph76%29.68 "Hg30 mi
6:00 AM43 °FPassing clouds.8 mph76%29.69 "Hg9 mi
5:00 AM41 °FPartly cloudy.8 mph81%29.71 "Hg9 mi
4:00 AM41 °FPassing clouds.6 mph81%29.73 "Hg9 mi
3:00 AM39 °FClear.5 mph81%29.76 "Hg9 mi
2:00 AM39 °FPassing clouds.7 mph81%29.78 "Hg9 mi
1:00 AM39 °FClear.7 mph81%29.81 "Hg9 mi
12:00 AM43 °FClear.5 mph76%29.82 "Hg9 mi
11:00 PM
Mon, Mar 30
45 °FClear.No wind71%29.84 "Hg9 mi
10:00 PM46 °FClear.5 mph66%29.86 "Hg9 mi
9:00 PM52 °FPassing clouds.7 mph50%29.85 "Hg15 mi
8:00 PM55 °FScattered clouds.7 mph51%29.87 "Hg30 mi
7:00 PM63 °FPartly sunny.5 mph37%29.88 "Hg30 mi
6:00 PM66 °FPartly sunny.6 mph30%29.87 "Hg30 mi
5:00 PM66 °FPartly sunny.9 mph30%29.88 "Hg30 mi
4:00 PM66 °FPartly sunny.12 mph30%29.91 "Hg30 mi
3:00 PM63 °FPassing clouds.2 mph34%29.96 "Hg30 mi
2:00 PM61 °FPassing clouds.8 mph34%29.99 "Hg30 mi
1:00 PM59 °FScattered clouds.5 mph31%30.01 "Hg30 mi
12:00 PM55 °FPassing clouds.5 mph36%30.03 "Hg30 mi
11:00 AM54 °FPassing clouds.8 mph38%30.05 "Hg30 mi
Weather by CustomWeather, © 2015

See weather overviewHow to use our weather pages